Home   Weather   Pahrump   Past weeks
Flag for USA

Past Weather in Pahrump, Nevada, USA — Yesterday and Last 2 Weeks

Now
72 °F

Sunny.


Feels Like: 73 °F
Forecast: 80 / 48 °F
Wind: No wind

Location: Desert Rock Airport

Current Time: Oct 14, 2019 at 11:15:39 am

Latest Report: Oct 14, 2019 at 10:53 am


Visibility: 10 mi

Pressure: 29.89 "Hg (27.28 "Hg at 791m altitude)

Humidity: 10%

Dew Point: 12 °F

Location of PahrumpLocation

Past Weather in Pahrump — Graph

°F

Pahrump Temperature Yesterday

Maximum temperature yesterday: 77 °F (at 2:53 pm)
Minimum temperature yesterday: 40 °F (at 6:53 am)
Average temperature yesterday: 59 °F

High & Low Weather Summary for the Past Weeks

 TemperatureHumidityPressure
High86 °F (Oct 8, 2:53 pm)28% (Oct 1, 5:53 am)30.21 "Hg (Oct 1, 5:53 am)
Low40 °F (Oct 13, 6:53 am)2% (Oct 12, 3:53 pm)29.56 "Hg (Oct 9, 2:53 pm)
Average62 °F13%29.89 "Hg
* Reported Sep 29 9:53 am — Oct 14 9:53 am, Pahrump. Weather by CustomWeather, © 2019

Note: Actual official high and low records may vary slightly from our data, if they occured in-between our weather recording intervals... More about our weather records

Advertising

Pahrump Weather History for the Previous 24 Hours

Scroll right to see more
 ConditionsComfort  
Time TempWeatherWind HumidityBarometerVisibility
9:53 am
Mon, Oct 14
67 °FSunny.6 mph11%29.90 "Hg10 mi
8:53 am64 °FSunny.8 mph11%29.89 "Hg10 mi
7:53 am52 °FSunny.No wind17%29.88 "Hg10 mi
6:53 am43 °FSunny.3 mph24%29.87 "Hg10 mi
5:53 am47 °FClear.5 mph20%29.85 "Hg10 mi
4:53 am49 °FClear.3 mph20%29.83 "Hg10 mi
3:53 am51 °FClear.No wind17%29.82 "Hg10 mi
2:53 am48 °FClear.3 mph20%29.81 "Hg10 mi
1:53 am47 °FClear.No wind20%29.82 "Hg10 mi
12:53 am52 °FClear.3 mph17%29.81 "Hg10 mi
11:53 pm
Sun, Oct 13
53 °FClear.5 mph17%29.80 "Hg10 mi
10:53 pm53 °FClear.5 mph17%29.81 "Hg10 mi
9:53 pm56 °FClear.7 mph16%29.80 "Hg10 mi
8:53 pm60 °FClear.7 mph14%29.80 "Hg10 mi
7:53 pm64 °FClear.5 mph12%29.81 "Hg10 mi
6:53 pm66 °FClear.5 mph11%29.80 "Hg10 mi
5:53 pm73 °FSunny.12 mph9%29.78 "Hg10 mi
4:53 pm76 °FSunny.17 mph7%29.78 "Hg10 mi
3:53 pm77 °FSunny.15 mph6%29.79 "Hg10 mi
2:53 pm77 °FSunny.10 mph6%29.79 "Hg10 mi
1:53 pm76 °FSunny.5 mph5%29.81 "Hg10 mi
12:53 pm73 °FSunny.6 mph5%29.84 "Hg10 mi
11:53 am72 °FSunny.6 mph5%29.87 "Hg10 mi
Weather by CustomWeather, © 2019

See weather overview